FW9262 Weather Reports


time (UTC)temp
C
wind
direction
speed
KPH
gust
KPH
rain 1hr
cm
rain 24hr
cm
rain mn
cm
humidity
%
barometer
mb
20260905185701 27 2 3.2 4.8 0.00 0.00 0.00 62 1017.0
20260905185155 27 212 4.8 4.8 0.00 0.00 0.00 62 1017.0
20260905184655 28 318 1.6 4.8 0.00 0.00 0.00 60 1017.3
20260905184154 27 260 3.2 6.4 0.00 0.00 0.00 60 1017.3
20260905183648 26 222 4.8 4.8 0.00 0.00 0.00 63 1017.3
20260905183143 26 181 3.2 6.4 0.00 0.00 0.00 64 1017.3
20260905182643 27 273 3.2 4.8 0.00 0.00 0.00 63 1017.0
20260905182143 27 130 3.2 4.8 0.00 0.00 0.00 63 1017.6
20260905181638 27 186 3.2 6.4 0.00 0.00 0.00 64 1017.3
20260905181137 26 306 3.2 4.8 0.00 0.00 0.00 64 1017.3
20260905180632 26 101 1.6 6.4 0.00 0.00 0.00 65 1017.6
20260905180127 26 236 3.2 9.7 0.00 0.00 0.00 64 1017.6
20260905175626 26 154 3.2 4.8 0.00 0.00 0.00 64 1017.3
20260905175122 27 224 6.4 9.7 0.00 0.00 0.00 64 1017.3
20260905174617 27 252 1.6 4.8 0.00 0.00 0.00 63 1017.3
20260905174113 27 314 3.2 4.8 0.00 0.00 0.00 57 1017.3
20260905173609 27 64 0.0 1.6 0.00 0.00 0.00 56 1017.3
20260905173104 27 347 0.0 1.6 0.00 0.00 0.00 58 1017.0
20260905172603 26 182 1.6 3.2 0.00 0.00 0.00 59 1017.3
20260905172058 26 20 1.6 1.6 0.00 0.00 0.00 60 1017.3
20260905171554 26 76 4.8 6.4 0.00 0.00 0.00 61 1017.0
20260905171050 26 303 0.0 6.4 0.00 0.00 0.00 62 1017.3
20260905170547 26 261 3.2 3.2 0.00 0.00 0.00 62 1017.3
20260905170042 26 49 0.0 1.6 0.00 0.00 0.00 61 1017.0
20260905165537 25 352 0.0 1.6 0.00 0.00 0.00 64 1017.3
20260905165032 25 317 1.6 4.8 0.00 0.00 0.00 65 1017.0
20260905164526 25 342 1.6 3.2 0.00 0.00 0.00 65 1017.0
20260905164021 25 95 3.2 3.2 0.00 0.00 0.00 63 1017.0
20260905163517 25 12 1.6 4.8 0.00 0.00 0.00 64 1017.0
20260905163013 25 34 0.0 3.2 0.00 0.00 0.00 65 1017.0
20260905162508 25 31 1.6 3.2 0.00 0.00 0.00 66 1017.0
20260905162003 24 48 3.2 3.2 0.00 0.00 0.00 68 1017.0
20260905161503 24 62 3.2 4.8 0.00 0.00 0.00 68 1017.0
20260905161000 25 176 1.6 4.8 0.00 0.00 0.00 66 1017.0
20260905160454 24 7 0.0 1.6 0.00 0.00 0.00 69 1017.0
20260905155954 25 59 0.0 1.6 0.00 0.00 0.00 69 1017.0
20260905155449 25 27 1.6 1.6 0.00 0.00 0.00 70 1017.0
20260905154947 23 349 0.0 1.6 0.00 0.00 0.00 73 1017.0
20260905154442 24 357 0.0 3.2 0.00 0.00 0.00 72 1017.0
20260905153938 25 28 0.0 3.2 0.00 0.00 0.00 70 1017.0
20260905153434 25 348 0.0 0.0 0.00 0.00 0.00 72 1017.0
20260905152934 24 347 0.0 0.0 0.00 0.00 0.00 73 1017.0
20260905152434 23 345 0.0 3.2 0.00 0.00 0.00 74 1017.0
20260905151928 23 14 1.6 3.2 0.00 0.00 0.00 75 1017.0
20260905151425 23 7 0.0 1.6 0.00 0.00 0.00 76 1017.0
20260905150924 23 347 0.0 0.0 0.00 0.00 0.00 75 1017.0
20260905150419 23 4 0.0 0.0 0.00 0.00 0.00 74 1017.0
20260905145915 23 26 0.0 0.0 0.00 0.00 0.00 76 1017.0
20260905145410 23 347 0.0 0.0 0.00 0.00 0.00 77 1016.6
20260905144909 21 17 0.0 0.0 0.00 0.00 0.00 82 1016.6
20260905144405 21 348 0.0 0.0 0.00 0.00 0.00 86 1016.6
20260905143904 20 354 0.0 0.0 0.00 0.00 0.00 90 1016.6
20260905143358 20 354 0.0 0.0 0.00 0.00 0.00 92 1016.3
20260905142857 19 347 0.0 0.0 0.00 0.00 0.00 94 1016.0
20260905142356 18 11 0.0 0.0 0.00 0.00 0.00 94 1016.3
20260905141852 18 343 0.0 0.0 0.00 0.00 0.00 95 1016.3
20260905141347 18 352 0.0 0.0 0.00 0.00 0.00 95 1016.6
20260905140844 18 348 0.0 0.0 0.00 0.00 0.00 95 1016.3
20260905140343 18 336 0.0 0.0 0.00 0.00 0.00 95 1016.3
20260905135842 17 345 0.0 0.0 0.00 0.00 0.00 95 1016.3
20260905135338 17 345 0.0 0.0 0.00 0.00 0.00 95 1016.3
20260905134833 17 334 0.0 0.0 0.00 0.00 0.00 95 1016.0
20260905134326 17 345 0.0 0.0 0.00 0.00 0.00 95 1016.3
20260905133821 17 341 0.0 0.0 0.00 0.00 0.00 95 1016.0
20260905133316 17 341 0.0 0.0 0.00 0.00 0.00 95 1016.0
20260905132815 17 346 0.0 0.0 0.00 0.00 0.00 95 1016.0
20260905132311 17 344 0.0 0.0 0.00 0.00 0.00 95 1016.0
20260905131805 17 348 0.0 0.0 0.00 0.00 0.00 95 1015.6
20260905131301 17 346 0.0 0.0 0.00 0.00 0.00 95 1015.6
20260905130755 17 342 0.0 0.0 0.00 0.00 0.00 95 1016.0
20260905130254 16 346 0.0 0.0 0.00 0.00 0.00 95 1016.0
20260905125750 16 343 0.0 0.0 0.00 0.00 0.00 95 1016.0
20260905125244 16 344 0.0 0.0 0.00 0.00 0.00 95 1016.0
20260905124741 16 342 0.0 0.0 0.00 0.00 0.00 95 1016.0
20260905124237 16 341 0.0 0.0 0.00 0.00 0.00 95 1016.0
20260905123732 17 340 0.0 0.0 0.00 0.00 0.00 95 1015.6
20260905123229 17 336 0.0 0.0 0.00 0.00 0.00 94 1015.6
20260905122729 17 344 0.0 0.0 0.00 0.00 0.00 94 1015.6
20260905122228 17 342 0.0 0.0 0.00 0.00 0.00 94 1015.6
20260905121724 17 343 0.0 0.0 0.00 0.00 0.00 94 1015.6
20260905121220 17 344 0.0 0.0 0.00 0.00 0.00 94 1016.0
20260905120719 17 343 0.0 0.0 0.00 0.00 0.00 94 1015.6
20260905120213 17 349 0.0 0.0 0.00 0.00 0.00 94 1016.0
20260905115708 17 346 0.0 0.0 0.00 0.00 0.00 94 1015.6
20260905115203 17 343 0.0 0.0 0.00 0.00 0.00 94 1016.0
20260905114703 17 348 0.0 0.0 0.00 0.00 0.00 94 1016.0
20260905114201 17 0 0.0 1.6 0.00 0.00 0.00 94 1015.6
20260905113655 17 342 0.0 1.6 0.00 0.00 0.00 94 1015.6
20260905113151 17 343 0.0 0.0 0.00 0.00 0.00 94 1016.0
20260905112650 17 343 0.0 0.0 0.00 0.00 0.00 94 1016.0
20260905112146 17 343 0.0 0.0 0.00 0.00 0.00 94 1015.6
20260905111646 17 348 0.0 0.0 0.00 0.00 0.00 94 1016.0
20260905111145 17 345 0.0 0.0 0.00 0.00 0.00 94 1016.0
20260905110644 17 342 0.0 0.0 0.00 0.00 0.00 94 1016.0
20260905110140 17 343 0.0 0.0 0.00 0.00 0.00 94 1015.6
20260905105635 17 342 0.0 0.0 0.00 0.00 0.00 94 1015.6
20260905105134 17 330 0.0 0.0 0.00 0.00 0.00 94 1015.6
20260905104629 17 341 0.0 0.0 0.00 0.00 0.00 94 1016.0
20260905104125 17 337 0.0 0.0 0.00 0.00 0.00 93 1015.6
20260905103620 17 341 0.0 0.0 0.00 0.00 0.00 93 1016.0
20260905103116 17 343 0.0 0.0 0.00 0.00 0.00 93 1016.0
20260905102611 17 344 0.0 0.0 0.00 0.00 0.00 93 1016.0
20260905102108 17 336 0.0 0.0 0.00 0.00 0.00 93 1016.0
20260905101606 18 340 0.0 0.0 0.00 0.00 0.00 93 1016.0
20260905101104 18 351 0.0 0.0 0.00 0.00 0.00 93 1016.0
20260905100601 18 343 0.0 0.0 0.00 0.00 0.00 93 1016.0
20260905100055 18 343 0.0 1.6 0.00 0.00 0.00 93 1016.0
20260905095549 18 356 0.0 0.0 0.00 0.00 0.00 93 1016.0
20260905095045 18 342 0.0 0.0 0.00 0.00 0.00 93 1016.0
20260905094539 18 345 0.0 0.0 0.00 0.00 0.00 93 1016.0
20260905094039 18 347 0.0 0.0 0.00 0.00 0.00 93 1016.0
20260905093533 18 347 0.0 0.0 0.00 0.00 0.00 93 1016.0
20260905093030 18 341 0.0 0.0 0.00 0.00 0.00 92 1015.6
20260905092530 18 350 0.0 0.0 0.00 0.00 0.00 92 1016.0
20260905092026 18 341 0.0 0.0 0.00 0.00 0.00 92 1016.3
20260905091524 18 335 0.0 0.0 0.00 0.00 0.00 92 1016.0
20260905091019 18 336 0.0 0.0 0.00 0.00 0.00 92 1016.0
20260905090519 18 345 0.0 0.0 0.00 0.00 0.00 92 1016.0
20260905090014 18 348 0.0 1.6 0.00 0.00 0.00 92 1016.0
20260905085512 18 342 0.0 0.0 0.00 0.00 0.00 92 1016.0
20260905085009 18 333 0.0 0.0 0.00 0.00 0.00 92 1016.0
20260905084503 18 343 0.0 1.6 0.00 0.00 0.00 92 1016.0
20260905083957 18 351 0.0 1.6 0.00 0.00 0.00 92 1016.0
20260905083453 18 346 0.0 0.0 0.00 0.00 0.00 92 1016.0
20260905082949 19 345 0.0 0.0 0.00 0.00 0.00 92 1016.3
20260905082444 19 354 0.0 0.0 0.00 0.00 0.00 92 1016.3
20260905081939 19 4 0.0 0.0 0.00 0.00 0.00 92 1016.0
20260905081434 19 4 1.6 3.2 0.00 0.00 0.00 92 1016.3
20260905080933 19 344 0.0 3.2 0.00 0.00 0.00 92 1016.0
20260905080428 19 28 1.6 3.2 0.00 0.00 0.00 92 1016.0
20260905075927 19 24 1.6 1.6 0.00 0.00 0.00 92 1016.3
20260905075421 19 8 1.6 3.2 0.00 0.00 0.00 92 1016.0
20260905074920 19 12 1.6 1.6 0.00 0.00 0.00 92 1016.3
20260905074416 19 6 1.6 1.6 0.00 0.00 0.00 92 1016.0
20260905073912 19 15 1.6 1.6 0.00 0.00 0.00 93 1016.0
20260905073407 19 3 0.0 1.6 0.00 0.00 0.00 92 1016.0
20260905072902 19 47 1.6 3.2 0.00 0.00 0.00 93 1016.3
20260905072356 20 354 1.6 3.2 0.00 0.00 0.00 93 1016.3
20260905071852 20 38 1.6 3.2 0.00 0.00 0.00 93 1016.0
20260905071349 20 358 1.6 3.2 0.00 0.00 0.00 93 1016.0
20260905070843 20 11 1.6 3.2 0.00 0.00 0.00 93 1016.0
20260905070340 20 26 3.2 3.2 0.00 0.00 0.00 93 1016.0
20260905065839 20 351 0.0 3.2 0.00 0.00 0.00 93 1016.0
20260905065337 20 13 1.6 3.2 0.00 0.00 0.00 93 1016.0
20260905064832 19 356 0.0 3.2 0.00 0.00 0.00 93 1016.0
20260905064328 20 14 1.6 1.6 0.00 0.00 0.00 93 1016.0
20260905063826 20 350 0.0 1.6 0.00 0.00 0.00 93 1016.0
20260905063323 19 328 0.0 0.0 0.00 0.00 0.00 93 1016.0
20260905062819 20 351 0.0 0.0 0.00 0.00 0.00 93 1016.3
20260905062319 20 344 0.0 0.0 0.00 0.00 0.00 93 1016.0
20260905061813 20 346 0.0 0.0 0.00 0.00 0.00 92 1016.0
20260905061308 20 341 0.0 0.0 0.00 0.00 0.00 92 1016.0
20260905060802 20 345 0.0 0.0 0.00 0.00 0.00 92 1016.0
20260905060259 20 1 0.0 0.0 0.00 0.00 0.00 92 1016.0
20260905055758 20 2 0.0 0.0 0.00 0.00 0.00 92 1016.0
20260905055252 20 0 0.0 0.0 0.00 0.00 0.00 92 1016.0
20260905054748 20 356 0.0 0.0 0.00 0.00 0.00 92 1016.0
20260905054245 20 327 0.0 0.0 0.00 0.00 0.00 92 1016.0
20260905053743 20 350 0.0 0.0 0.00 0.00 0.00 91 1016.0
20260905053239 19 348 0.0 0.0 0.00 0.00 0.00 91 1016.0
20260905052738 20 345 0.0 0.0 0.00 0.00 0.00 91 1015.6
20260905052233 20 340 0.0 0.0 0.00 0.00 0.00 91 1016.0
20260905051733 20 340 0.0 0.0 0.00 0.00 0.00 91 1016.0
20260905051230 20 1 0.0 0.0 0.00 0.00 0.00 91 1016.0
20260905050726 20 357 0.0 0.0 0.00 0.00 0.00 91 1016.0
20260905050222 20 352 0.0 0.0 0.00 0.00 0.00 90 1016.0
20260905045722 20 347 0.0 0.0 0.00 0.00 0.00 90 1016.0
20260905045217 20 23 0.0 0.0 0.00 0.00 0.00 90 1016.0
20260905044712 20 342 0.0 0.0 0.00 0.00 0.00 90 1016.0
20260905044207 20 337 0.0 0.0 0.00 0.00 0.00 90 1016.0
20260905043706 20 341 0.0 0.0 0.00 0.00 0.00 89 1015.6
20260905043200 20 340 0.0 0.0 0.00 0.00 0.00 89 1015.6
20260905042655 20 337 0.0 0.0 0.00 0.00 0.00 89 1015.6
20260905042154 20 340 0.0 0.0 0.00 0.00 0.00 88 1015.3
20260905041650 20 343 0.0 0.0 0.00 0.00 0.00 88 1015.6
20260905041145 20 347 0.0 0.0 0.00 0.00 0.00 88 1015.3
20260905040640 20 336 0.0 0.0 0.00 0.00 0.00 88 1015.6
20260905040139 20 333 0.0 0.0 0.00 0.00 0.00 88 1015.3
20260905035634 21 338 0.0 0.0 0.00 0.00 0.00 88 1015.3
20260905035131 21 331 0.0 1.6 0.00 0.00 0.00 88 1015.3
20260905034626 21 315 0.0 3.2 0.00 0.00 0.00 87 1014.9
20260905034126 21 287 1.6 3.2 0.00 0.00 0.00 87 1014.9
20260905033620 21 345 0.0 1.6 0.00 0.00 0.00 86 1015.3
20260905033116 21 327 0.0 3.2 0.00 0.00 0.00 86 1014.9
20260905032616 21 329 0.0 1.6 0.00 0.00 0.00 86 1014.9
20260905032115 21 340 0.0 1.6 0.00 0.00 0.00 86 1014.9
20260905031611 21 333 0.0 1.6 0.00 0.00 0.00 85 1014.9
20260905031111 21 321 1.6 3.2 0.00 0.00 0.00 85 1014.9
20260905030606 21 320 0.0 1.6 0.00 0.00 0.00 85 1014.6
20260905025557 21 290 1.6 4.8 0.00 0.00 0.00 84 1014.9
20260905025053 21 303 1.6 4.8 0.00 0.00 0.00 83 1014.9
20260905024548 21 43 1.6 3.2 0.00 0.00 0.00 83 1014.9
20260905024043 21 291 1.6 3.2 0.00 0.00 0.00 83 1014.9
20260905023538 21 300 3.2 4.8 0.00 0.00 0.00 83 1014.6
20260905023033 21 281 1.6 4.8 0.00 0.00 0.00 82 1014.6
20260905022532 21 341 0.0 3.2 0.00 0.00 0.00 82 1014.6
20260905022028 21 329 1.6 1.6 0.00 0.00 0.00 82 1014.6
20260905021527 21 294 3.2 3.2 0.00 0.00 0.00 82 1014.9
20260905021023 21 301 4.8 6.4 0.00 0.00 0.00 81 1014.9
20260905020522 21 342 0.0 3.2 0.00 0.00 0.00 81 1014.9
20260905020018 21 268 3.2 4.8 0.00 0.00 0.00 81 1014.9
20260905015515 22 316 1.6 4.8 0.00 0.00 0.00 80 1014.9
20260905015016 22 297 1.6 6.4 0.00 0.00 0.00 80 1014.9
20260905014510 22 296 3.2 4.8 0.00 0.00 0.00 79 1014.9
20260905014006 22 265 4.8 6.4 0.00 0.00 0.00 78 1014.9
20260905013502 22 321 1.6 1.6 0.00 0.00 0.00 77 1014.9
20260905012957 22 333 3.2 3.2 0.00 0.00 0.00 76 1014.9
20260905012452 22 305 1.6 4.8 0.00 0.00 0.00 77 1015.3
20260905011949 22 279 3.2 6.4 0.00 0.00 0.00 77 1014.9
20260905011444 22 212 3.2 6.4 0.00 0.00 0.00 77 1015.3
20260905010940 22 283 3.2 9.7 0.00 0.00 0.00 77 1014.9
20260905010435 22 335 3.2 6.4 0.00 0.00 0.00 77 1014.9
20260905005930 22 210 3.2 9.7 0.00 0.00 0.00 77 1014.9
20260905005426 23 305 3.2 9.7 0.00 0.00 0.00 75 1015.3
20260905004926 23 247 3.2 9.7 0.00 0.00 0.00 74 1015.3
20260905004421 23 203 3.2 3.2 0.00 0.00 0.00 73 1015.3
20260905003917 23 268 3.2 9.7 0.00 0.00 0.00 73 1015.3
20260905003412 23 257 4.8 11.3 0.00 0.00 0.00 73 1015.3
20260905002908 23 310 0.0 6.4 0.00 0.00 0.00 74 1015.3
20260905002408 23 258 6.4 9.7 0.00 0.00 0.00 72 1015.3
20260905001907 24 152 4.8 6.4 0.00 0.00 0.00 70 1015.3
20260905001402 25 291 3.2 6.4 0.00 0.00 0.00 69 1015.3
20260905000857 25 294 3.2 6.4 0.00 0.00 0.00 68 1015.3
20260905000355 25 336 1.6 4.8 0.00 0.00 0.00 69 1014.9
20260904235848 25 297 3.2 9.7 0.00 0.00 0.00 70 1014.9
20260904235343 25 291 4.8 9.7 0.00 0.00 0.00 70 1014.9
20260904234838 25 275 3.2 6.4 0.00 0.00 0.00 69 1014.9
20260904234333 25 320 3.2 6.4 0.00 0.00 0.00 68 1014.9
20260904233829 25 200 1.6 4.8 0.00 0.00 0.00 68 1015.3
20260904233324 25 344 0.0 4.8 0.00 0.00 0.00 68 1015.3
20260904232821 25 296 6.4 11.3 0.00 0.00 0.00 69 1014.9
20260904232317 25 288 3.2 11.3 0.00 0.00 0.00 69 1014.9
20260904231813 26 290 4.8 4.8 0.00 0.00 0.00 66 1015.3
20260904231307 25 325 1.6 4.8 0.00 0.00 0.00 68 1014.9
20260904230803 25 203 6.4 11.3 0.00 0.00 0.00 67 1015.3
20260904230301 25 287 3.2 11.3 0.00 0.00 0.00 68 1015.3
20260904225756 25 263 1.6 11.3 0.00 0.00 0.00 67 1015.3
20260904225249 25 218 4.8 6.4 0.00 0.00 0.00 68 1015.3
20260904224749 25 336 3.2 9.7 0.00 0.00 0.00 69 1015.3
20260904224244 25 342 4.8 11.3 0.00 0.00 0.00 68 1015.3
20260904223743 25 253 3.2 4.8 0.00 0.00 0.00 69 1015.6
20260904223239 25 235 4.8 9.7 0.00 0.00 0.00 68 1015.6
20260904222735 25 213 4.8 6.4 0.00 0.00 0.00 68 1015.3
20260904222230 25 292 4.8 11.3 0.00 0.00 0.00 67 1015.3
20260904221729 25 233 3.2 6.4 0.00 0.00 0.00 68 1015.6
20260904221224 25 177 6.4 11.3 0.00 0.00 0.00 67 1015.6
20260904220725 25 303 1.6 6.4 0.00 0.00 0.00 67 1015.6
20260904220219 25 327 4.8 6.4 0.00 0.00 0.00 67 1015.6
20260904215719 25 245 3.2 9.7 0.00 0.00 0.00 67 1015.6
20260904215215 26 228 4.8 9.7 0.00 0.00 0.00 65 1015.6
20260904214710 25 243 4.8 6.4 0.00 0.00 0.00 66 1015.6
20260904214206 25 277 4.8 6.4 0.00 0.00 0.00 65 1015.3
20260904213703 25 285 4.8 9.7 0.00 0.00 0.00 65 1015.6
20260904213155 25 257 3.2 9.7 0.00 0.00 0.00 64 1015.6
20260904212655 25 240 4.8 11.3 0.00 0.00 0.00 65 1015.6
20260904212150 25 247 4.8 11.3 0.00 0.00 0.00 64 1016.0
20260904211644 25 247 4.8 6.4 0.00 0.00 0.00 64 1016.0
20260904211139 25 240 3.2 9.7 0.00 0.00 0.00 66 1016.0
20260904210639 25 300 6.4 11.3 0.00 0.00 0.00 66 1016.0
20260904210135 25 309 3.2 11.3 0.00 0.00 0.00 67 1015.6
20260904205631 25 351 6.4 6.4 0.00 0.00 0.00 65 1016.0
20260904205127 25 234 6.4 9.7 0.00 0.00 0.00 65 1016.0
20260904204622 25 327 3.2 12.9 0.00 0.00 0.00 67 1016.0
20260904204119 25 305 3.2 9.7 0.00 0.00 0.00 66 1015.6
20260904203614 26 301 1.6 6.4 0.00 0.00 0.00 66 1015.6
20260904203111 25 188 3.2 3.2 0.00 0.00 0.00 67 1016.0
20260904202606 25 246 4.8 6.4 0.00 0.00 0.00 67 1016.0
20260904202103 25 250 8.0 12.9 0.00 0.00 0.00 68 1016.0
20260904201602 25 235 6.4 11.3 0.00 0.00 0.00 67 1016.0
20260904201057 25 289 3.2 9.7 0.00 0.00 0.00 66 1016.0
20260904200556 25 301 6.4 12.9 0.00 0.00 0.00 67 1016.0
20260904200051 25 315 3.2 11.3 0.00 0.00 0.00 65 1016.0
20260904195550 25 330 1.6 11.3 0.00 0.00 0.00 66 1016.3
20260904195044 25 305 6.4 9.7 0.00 0.00 0.00 65 1016.0
20260904194538 26 272 4.8 12.9 0.00 0.00 0.00 64 1016.0
20260904194033 25 299 4.8 6.4 0.00 0.00 0.00 65 1016.0
20260904193528 25 229 3.2 11.3 0.00 0.00 0.00 66 1016.3
20260904193025 25 172 4.8 9.7 0.00 0.00 0.00 66 1016.3
20260904192524 25 281 1.6 3.2 0.00 0.00 0.00 65 1016.3
20260904192020 25 21 1.6 6.4 0.00 0.00 0.00 64 1016.3
20260904191516 25 283 1.6 9.7 0.00 0.00 0.00 64 1016.3
20260904191013 25 214 3.2 6.4 0.00 0.00 0.00 64 1016.6
20260904190508 26 293 1.6 3.2 0.00 0.00 0.00 63 1016.6
20260904190004 27 273 6.4 9.7 0.00 0.00 0.00 59 1016.6